When you browse on this site, cookies collect data to enhance your experience and personalize the content and advertising you see.
Visit our Privacy Policy to learn more. By continuing to use the site, you agree to this use of cookies and data.
  • In Hungary
  • List of Countries
  • For 7 days
  • Water Temperature
  • Weather Map
  • News
  • Weather Widgets
  • user-avatar
    Login

    Hourly Weather Dzidzantun

    Today, 13 November, Wednesday

    Time Temperature Precipitation Wind Pressure Humidity
    00:00 +26°C° 0 mm 4 mps 760 mmHg 86%
    01:00 +26°C° 0.2 mm 4 mps 760 mmHg 87%
    02:00 +25°C° 0.2 mm 4 mps 759 mmHg 88%
    03:00 +25°C° 0.2 mm 4 mps 759 mmHg 88%
    04:00 +25°C° 0.3 mm 4 mps 760 mmHg 90%
    05:00 +25°C° 0.3 mm 4 mps 760 mmHg 92%
    06:00 +24°C° 0 mm 3 mps 760 mmHg 95%
    07:00 +25°C° 1.2 mm 4 mps 761 mmHg 93%
    08:00 +26°C° 1.2 mm 4 mps 761 mmHg 91%
    09:00 +27°C° 1.2 mm 5 mps 761 mmHg 89%
    10:00 +27°C° 1 mm 5 mps 761 mmHg 89%
    11:00 +27°C° 1 mm 5 mps 760 mmHg 89%
    12:00 +27°C° 1 mm 6 mps 760 mmHg 89%
    13:00 +27°C° 0.5 mm 5 mps 760 mmHg 87%
    14:00 +27°C° 0.5 mm 5 mps 759 mmHg 85%
    15:00 +27°C° 0.5 mm 5 mps 759 mmHg 83%
    16:00 +26°C° 0.2 mm 5 mps 759 mmHg 87%
    17:00 +26°C° 0.2 mm 5 mps 759 mmHg 90%
    18:00 +25°C° 0.2 mm 4 mps 759 mmHg 93%
    19:00 +25°C° 0.4 mm 4 mps 760 mmHg 93%
    20:00 +25°C° 0.4 mm 4 mps 760 mmHg 93%
    21:00 +25°C° 0.4 mm 4 mps 761 mmHg 94%
    22:00 +25°C° 0.4 mm 3 mps 760 mmHg 94%
    23:00 +25°C° 0.4 mm 3 mps 760 mmHg 95%

    Tomorrow, 14 November, Thursday

    Time Temperature Precipitation Wind Pressure Humidity
    00:00 +24°C° 0.4 mm 3 mps 760 mmHg 96%
    01:00 +24°C° 0.5 mm 3 mps 760 mmHg 96%
    02:00 +24°C° 0.5 mm 3 mps 759 mmHg 97%
    03:00 +24°C° 0.5 mm 3 mps 759 mmHg 97%
    04:00 +24°C° 1.4 mm 3 mps 759 mmHg 98%
    05:00 +24°C° 1.4 mm 3 mps 760 mmHg 98%
    06:00 +24°C° 1.4 mm 3 mps 760 mmHg 98%
    07:00 +25°C° 1.3 mm 3 mps 760 mmHg 96%
    08:00 +26°C° 1.3 mm 3 mps 760 mmHg 94%
    09:00 +27°C° 1.3 mm 3 mps 761 mmHg 92%
    10:00 +28°C° 1.5 mm 3 mps 760 mmHg 89%
    11:00 +28°C° 1.5 mm 3 mps 760 mmHg 87%
    12:00 +29°C° 1.5 mm 2 mps 760 mmHg 85%
    13:00 +29°C° 0.8 mm 3 mps 759 mmHg 84%
    14:00 +29°C° 0.8 mm 3 mps 759 mmHg 83%
    15:00 +29°C° 0.8 mm 3 mps 758 mmHg 81%
    16:00 +28°C° 2.1 mm 4 mps 759 mmHg 86%
    17:00 +26°C° 2.1 mm 4 mps 759 mmHg 90%
    18:00 +25°C° 2.1 mm 5 mps 759 mmHg 94%
    19:00 +25°C° 1.8 mm 4 mps 760 mmHg 94%
    20:00 +25°C° 1.8 mm 4 mps 760 mmHg 94%
    21:00 +25°C° 1.8 mm 4 mps 761 mmHg 95%
    22:00 +25°C° 0.9 mm 3 mps 761 mmHg 95%
    23:00 +25°C° 0.9 mm 3 mps 761 mmHg 96%

    Day after tomorrow, 15 November, Friday

    Time Temperature Precipitation Wind Pressure Humidity
    00:00 +24°C° 0.9 mm 3 mps 760 mmHg 96%
    01:00 +24°C° 0.4 mm 3 mps 760 mmHg 97%
    02:00 +24°C° 0.4 mm 2 mps 760 mmHg 97%
    03:00 +24°C° 0.4 mm 2 mps 760 mmHg 97%
    04:00 +24°C° 0.5 mm 2 mps 760 mmHg 97%
    05:00 +24°C° 0.5 mm 3 mps 760 mmHg 97%
    06:00 +24°C° 0.5 mm 3 mps 760 mmHg 97%
    07:00 +25°C° 0.2 mm 3 mps 761 mmHg 92%
    08:00 +26°C° 0.2 mm 4 mps 761 mmHg 88%
    09:00 +27°C° 0.2 mm 4 mps 762 mmHg 83%
    10:00 +28°C° 0.2 mm 4 mps 761 mmHg 78%
    11:00 +29°C° 0.2 mm 4 mps 761 mmHg 72%
    12:00 +30°C° 0.2 mm 4 mps 761 mmHg 66%
    13:00 +29°C° 0.1 mm 5 mps 760 mmHg 68%
    14:00 +28°C° 0.1 mm 5 mps 760 mmHg 71%
    15:00 +28°C° 0.1 mm 6 mps 760 mmHg 73%
    16:00 +27°C° 0.1 mm 5 mps 760 mmHg 77%
    17:00 +26°C° 0.1 mm 5 mps 760 mmHg 81%
    18:00 +25°C° 0.1 mm 5 mps 761 mmHg 85%
    19:00 +25°C° 0 mm 5 mps 761 mmHg 84%
    20:00 +25°C° 0 mm 5 mps 762 mmHg 83%
    21:00 +23°C° 0 mm 4 mps 762 mmHg 83%
    22:00 +23°C° 0.1 mm 4 mps 762 mmHg 82%
    23:00 +23°C° 0.1 mm 4 mps 762 mmHg 82%

    16 November, Saturday

    Time Temperature Precipitation Wind Pressure Humidity
    00:00 +23°C° 0.1 mm 4 mps 762 mmHg 81%
    01:00 +23°C° 0.1 mm 4 mps 762 mmHg 82%
    02:00 +22°C° 0.1 mm 4 mps 761 mmHg 83%
    03:00 +22°C° 0.1 mm 3 mps 761 mmHg 85%
    04:00 +22°C° 0 mm 3 mps 761 mmHg 85%
    05:00 +21°C° 0 mm 3 mps 762 mmHg 85%
    06:00 +21°C° 0 mm 3 mps 762 mmHg 85%
    07:00 +22°C° 0 mm 4 mps 763 mmHg 78%
    08:00 +25°C° 0 mm 4 mps 763 mmHg 71%
    09:00 +26°C° 0 mm 4 mps 763 mmHg 63%
    10:00 +26°C° 0 mm 4 mps 763 mmHg 60%
    11:00 +27°C° 0 mm 4 mps 762 mmHg 56%
    12:00 +27°C° 0 mm 4 mps 762 mmHg 52%
    13:00 +27°C° 0 mm 4 mps 761 mmHg 53%
    14:00 +26°C° 0 mm 4 mps 761 mmHg 53%
    15:00 +26°C° 0 mm 3 mps 760 mmHg 54%
    16:00 +24°C° 0 mm 3 mps 761 mmHg 59%
    17:00 +22°C° 0 mm 3 mps 761 mmHg 65%
    18:00 +20°C° 0 mm 2 mps 761 mmHg 70%
    19:00 +20°C° 0 mm 2 mps 761 mmHg 72%
    20:00 +19°C° 0 mm 2 mps 761 mmHg 74%
    21:00 +19°C° 0 mm 2 mps 762 mmHg 75%
    22:00 +20°C° 0 mm 1 mps 761 mmHg 75%
    23:00 +20°C° 0 mm 1 mps 761 mmHg 74%

    17 November, Sunday

    Time Temperature Precipitation Wind Pressure Humidity
    00:00 +20°C° 0 mm 1 mps 761 mmHg 74%
    01:00 +20°C° 0 mm 1 mps 761 mmHg 74%
    02:00 +20°C° 0 mm 1 mps 760 mmHg 74%
    03:00 +20°C° 0 mm 1 mps 760 mmHg 73%
    04:00 +20°C° 0 mm 1 mps 760 mmHg 73%
    05:00 +20°C° 0 mm 1 mps 761 mmHg 72%
    06:00 +21°C° 0 mm 1 mps 761 mmHg 71%
    07:00 +22°C° 0 mm 1 mps 761 mmHg 65%
    08:00 +24°C° 0 mm 1 mps 761 mmHg 59%
    09:00 +26°C° 0 mm 1 mps 761 mmHg 54%
    10:00 +27°C° 0 mm 1 mps 760 mmHg 51%
    11:00 +28°C° 0 mm 2 mps 760 mmHg 49%
    12:00 +28°C° 0 mm 2 mps 760 mmHg 46%
    13:00 +28°C° 0 mm 2 mps 759 mmHg 49%
    14:00 +27°C° 0 mm 2 mps 758 mmHg 52%
    15:00 +27°C° 0 mm 2 mps 758 mmHg 55%
    16:00 +25°C° 0 mm 2 mps 758 mmHg 63%
    17:00 +23°C° 0 mm 2 mps 758 mmHg 70%
    18:00 +21°C° 0 mm 2 mps 758 mmHg 78%
    19:00 +20°C° 0 mm 2 mps 758 mmHg 80%
    20:00 +21°C° 0 mm 1 mps 759 mmHg 83%
    21:00 +21°C° 0 mm 1 mps 759 mmHg 85%
    22:00 +21°C° 0 mm 1 mps 759 mmHg 86%
    23:00 +21°C° 0 mm 1 mps 759 mmHg 88%

    18 November, Monday

    Time Temperature Precipitation Wind Pressure Humidity
    00:00 +20°C° 0 mm 1 mps 758 mmHg 89%
    01:00 +20°C° 0 mm 1 mps 758 mmHg 91%
    02:00 +20°C° 0 mm 1 mps 758 mmHg 92%
    03:00 +18°C° 0 mm 0 mps 758 mmHg 94%
    04:00 +17°C° 0 mm 0 mps 758 mmHg 95%
    05:00 +17°C° 0 mm 0 mps 758 mmHg 96%
    06:00 +17°C° 0 mm 0 mps 758 mmHg 97%
    07:00 +20°C° 0 mm 0 mps 758 mmHg 86%
    08:00 +23°C° 0 mm 0 mps 759 mmHg 75%
    09:00 +26°C° 0 mm 0 mps 759 mmHg 63%
    10:00 +27°C° 0 mm 0 mps 758 mmHg 58%
    11:00 +29°C° 0 mm 1 mps 758 mmHg 54%
    12:00 +30°C° 0 mm 1 mps 757 mmHg 49%
    13:00 +30°C° 0 mm 1 mps 757 mmHg 51%
    14:00 +29°C° 0 mm 2 mps 756 mmHg 54%
    15:00 +28°C° 0 mm 2 mps 756 mmHg 56%
    16:00 +27°C° 0 mm 2 mps 756 mmHg 65%
    17:00 +25°C° 0 mm 2 mps 757 mmHg 74%
    18:00 +24°C° 0 mm 2 mps 757 mmHg 83%
    19:00 +23°C° 0 mm 2 mps 758 mmHg 84%
    20:00 +23°C° 0 mm 2 mps 758 mmHg 86%
    21:00 +23°C° 0 mm 1 mps 759 mmHg 87%
    22:00 +22°C° 0 mm 1 mps 758 mmHg 88%
    23:00 +22°C° 0 mm 1 mps 758 mmHg 88%
    Show more